Find Tianping-3B(01)

NORAD ID: 61615 Int'l Des: 2024-189 Owner: ZJUNI Country: CN operational
LEOCIRCULARRETROGRADESSO

現在のビュー

3D地球を読み込み中...

Tianping-3B(01)について

説明を読み込み中...

次回通過

Passes for default location (London). Set your location on the main map for personalized predictions.

高度履歴

Loading altitude history...

軌道要素

1 61615U 24189B 26159.17979278 .00002603 00000-0 20878-3 0 9995
2 61615 97.5191 179.6012 0002946 61.3610 298.7910 15.00932046 89099
Epoch: Jun 8, 2026 • Age: 4 hours

現在のステータス

高度 591.5 km
速度 7.56 km/s
衛星直下点 -67.47°S, 44.71°W
打ち上げ日 Oct 22, 2024
運用期間 1.6 years
タイプ other

技術仕様

分類 Payload
質量 200.00 kg
乾燥質量 200.00 kg
総質量 200.00 kg
長さ 0.30 m
直径 0.30 m
スパン 0.60 m
形状 Box
製造者 CASIC/ZJUNI
バスタイプ TP-3
フェーズステータス In Orbit
所有者/国 ZJUNI/CN

Most Searched